Home > Weather > Ahaus > Past weeks

Flag for Germany Weather for the Past 2 Weeks in Ahaus, North Rhine-Westphalia, Germany

Now
32 °F

Snow. Low clouds.


Feels Like: 29 °F
Forecast: 23 / 34 °F
Wind: 3 mph from North

Location: Twenthe

Current Time: Feb 14, 2016 at 7:06:45 PM

Latest Report: Feb 14, 2016 at 6:00 PM


Visibility: 1 mi

Pressure: 29.35 "Hg

Humidity: 99%

Dew point: 32 °F

Location of AhausLocation

Historic Weather in Ahaus — Graph

°F

Ahaus Temperature Yesterday

Maximum temperature yesterday: 40 °F (at 6:00 PM)
Minimum temperature yesterday: 29 °F (at 8:00 AM)
Average temperature yesterday: 35 °F

High & Low Weather Summary for the Past Weeks

 TemperatureHumidityPressure
High53 °F (Feb 1, 4:00 PM)99% (Feb 9, 8:00 PM)30.25 "Hg (Feb 9, 8:00 PM)
Low29 °F (Feb 13, 8:00 AM)60% (Feb 8, 2:00 PM)28.82 "Hg (Feb 9, 5:00 PM)
Average40 °F86%29.48 "Hg
* Reported Jan 30 7:00 PM — Feb 14 5:00 PM, Ahaus, Weather by CustomWeather, © 2016

Note: Actual official high and low records may vary slightly from our data, if they occured in-between our weather recording intervals... More about our weather records

Advertising

Ahaus Weather History for the Previous 24 Hours

 ConditionsComfort  
Time TempWeatherWind HumidityBarometerVisibility
5:00 PM
Sun, Feb 14
33 °FSnow. Low clouds.2 mph98%29.29 "Hg1 mi
4:00 PM33 °FSnow. Low clouds.2 mph97%29.26 "Hg1 mi
2:00 PM35 °FLight rain. Low clouds.5 mph94%29.21 "Hg4 mi
1:00 PM35 °FMixture of precip. Low clouds.6 mph95%29.21 "Hg4 mi
12:00 PM35 °FDrizzle. Low clouds.7 mph94%29.18 "Hg4 mi
11:00 AM35 °FMixture of precip. Low clouds.6 mph95%29.18 "Hg3 mi
10:00 AM35 °FDrizzle. Low clouds.6 mph96%29.15 "Hg2 mi
9:00 AM35 °FDrizzle. Low clouds.5 mph96%29.12 "Hg2 mi
8:00 AM35 °FLight rain. Low clouds.5 mph95%29.12 "Hg2 mi
7:00 AM35 °FDrizzle. Low clouds.5 mph95%29.09 "Hg2 mi
6:00 AM35 °FDrizzle. Low clouds.5 mph95%29.09 "Hg2 mi
5:00 AM35 °FLow clouds.6 mph95%29.06 "Hg2 mi
4:00 AM35 °FDrizzle. Low clouds.6 mph95%29.06 "Hg3 mi
3:00 AM35 °FDrizzle. Low clouds.6 mph94%29.06 "Hg3 mi
2:00 AM36 °FDrizzle. Overcast.6 mph88%29.06 "Hg4 mi
1:00 AM37 °FPassing clouds.6 mph83%29.06 "Hg6 mi
9:00 PM
Sat, Feb 13
39 °FPassing clouds.5 mph74%29.12 "Hg12 mi
8:00 PM40 °FOvercast.6 mph75%29.12 "Hg12 mi
7:00 PM40 °FPassing clouds.5 mph76%29.15 "Hg11 mi
Weather by CustomWeather, © 2016

See weather overviewHow to use our weather pages